Location: Gellerup
(56.1523°N, 10.1326°E)
Time: 06:47:01
(UTC+00:00)

Daily predictions for brighter satellites

Satellite Brightness Start Highest point End
(mag) Time Altitude Azimuth Time Altitude Azimuth Time Altitude Azimuth
IRIDIUM 103 4.4 19:47:14 10° S 19:52:27 83° E 19:57:43 10° N
CZ-2C R/B 3.7 19:49:15 10° NNE 19:53:57 77° ESE 19:58:31 10° SSW
Cosmos 1821 Rocket 4.0 19:48:41 10° S 19:54:46 67° E 20:00:58 10° NNE
Cosmos 1862 Rocket 4.0 19:51:32 10° N 19:55:55 50° ENE 20:00:16 10° SSE
Intercosmos 25 3.9 19:50:41 10° NNW 19:56:02 72° W 19:59:37 10° S
SL-16 R/B 3.1 19:50:50 10° NNW 19:56:11 40° NE 20:01:32 10° ESE
COSMOS 2406 3.4 19:51:04 10° SSW 19:56:39 55° ESE 20:02:15 10° NE
Cosmos 1743 Rocket 4.3 19:53:22 10° SSW 19:57:46 59° WNW 20:02:14 10° N
Lacrosse 5 1.9 19:55:14 10° WNW 20:00:20 88° SSW 20:05:27 10° ESE
Cosmos 2369 4.1 19:55:34 10° NW 20:01:16 67° WSW 20:06:57 10° SSE
ERS-1 Rocket 3.4 19:56:52 10° SE 20:01:43 50° ENE 20:06:34 10° N
Cosmos 1862 3.5 20:01:51 10° SSW 20:05:54 80° W 20:10:01 10° N
Cosmos 2219 Rocket 4.2 20:02:14 10° NNW 20:06:34 22° NNE 20:10:53 10° ENE
Sich 1 3.1 20:02:25 10° S 20:06:51 72° E 20:11:18 10° NNE
BREEZE-M DEB (TANK) 3.5 20:06:24 10° SW 20:08:30 19° S 20:09:55 11° SE
NOSS 2 (A) 4.2 20:07:02 10° NW 20:09:57 89° NE 20:12:18 11° SE
Cosmos 2123 Rocket 4.0 20:04:14 10° N 20:10:28 82° ENE 20:16:43 10° SSE
Cosmos 2278 3.9 20:04:51 10° NW 20:10:36 78° WSW 20:16:19 10° SSE
Cosmos 2082 Rocket 2.8 20:06:49 10° S 20:11:55 35° ESE 20:17:00 10° NE
Spot 2 Rocket 3.6 20:12:37 10° SSE 20:17:44 82° WSW 20:22:52 10° NNW
Meteor 1-4 Rocket 2.6 20:14:55 10° NNW 20:18:26 76° WSW 20:21:54 10° S
Cosmos 2322 Rocket 3.0 20:13:14 10° NNW 20:18:42 45° NE 20:24:10 10° ESE
CZ-2C R/B 3.6 20:16:32 10° N 20:21:33 50° WNW 20:26:32 10° SW
Cosmos 2239 Rocket 4.5 20:17:58 10° S 20:24:06 88° ESE 20:30:19 10° NNE
Cosmos 1184 Rocket 3.5 20:21:17 10° SSE 20:24:20 35° E 20:27:24 10° NNE
CARTOSAT-1 3.6 20:20:11 10° SSE 20:24:28 68° ENE 20:28:48 10° NNW
Cosmos 1190 Rocket 4.2 20:19:30 10° S 20:24:37 53° ESE 20:29:49 10° NE
USA 234 3.7 20:18:51 10° SE 20:25:11 51° SW 20:31:32 10° WNW
Terra 2.2 20:21:08 11° SE 20:25:38 50° ENE 20:30:15 10° N
Cosmos 407 Rocket 3.5 20:22:17 10° SSW 20:27:33 66° ESE 20:32:48 10° NNE
Okean 1 3.8 20:24:00 10° N 20:27:57 48° ENE 20:31:27 13° SSE
Cosmos 1933 Rocket 4.5 20:24:16 10° SSE 20:28:06 32° E 20:32:03 10° NNE
Cosmos 1605 Rocket 4.2 20:22:22 10° SSE 20:28:14 50° E 20:34:06 10° NNE
Cosmos 1666 Rocket 3.5 20:24:07 10° S 20:28:26 79° E 20:32:47 10° NNE
Meteor 1-27 Rocket 4.5 20:23:08 10° NNW 20:28:54 57° W 20:34:41 10° S
Cosmos 1238 Rocket 3.1 20:28:02 13° SSE 20:30:13 28° E 20:32:50 10° NNE
Cosmos 1437 Rocket 3.4 20:28:49 10° N 20:32:28 39° ENE 20:35:27 14° SE
Cosmos 2360 Rocket 3.3 20:27:32 10° NNW 20:32:49 37° NE 20:38:04 10° ESE
Meteor 1-19 Rocket 4.3 20:32:00 10° N 20:37:25 62° ENE 20:42:13 13° SSE
ERBS 2.1 20:35:22 10° WSW 20:38:41 79° SSE 20:42:01 10° ENE
CZ-4B DEB 4.4 20:35:36 11° SSE 20:38:44 83° WSW 20:42:06 10° NNW
SPOT 5 2.6 20:35:54 12° SSE 20:39:56 81° ENE 20:44:21 10° NNW
USA 238 DEB 4.3 20:34:48 10° S 20:40:33 32° ESE 20:46:30 10° ENE
USA 238 4.3 20:34:56 10° S 20:40:40 32° ESE 20:46:36 10° ENE
Cosmos 1980 Rocket 2.7 20:36:07 10° NW 20:41:42 56° WSW 20:47:05 11° SSE
Cosmos 1703 Rocket 3.8 20:39:19 10° N 20:43:38 55° ENE 20:47:06 15° SSE
Cosmos 2242 Rocket 3.6 20:39:12 10° N 20:43:41 71° ENE 20:47:29 14° SSE
Iridium 4 Rocket 4.5 20:41:58 13° SE 20:44:40 22° E 20:47:57 10° NNE
Geosat 4.5 20:40:38 12° ESE 20:45:11 54° NE 20:50:07 10° NNW
SPOT 1/Viking Rocket 4.0 20:40:31 10° S 20:45:41 62° WSW 20:50:55 10° NNW
Cosmos 1763 Rocket 3.6 20:41:20 10° NNW 20:46:42 74° ENE 20:51:08 15° SE
Genesis I 4.3 20:44:11 10° WNW 20:47:44 34° SW 20:50:44 13° S
SL-4 R/B 3.0 20:46:33 10° SSW 20:49:31 21° SSE 20:51:35 14° ESE
BREEZE-M DEB (TANK) 3.4 20:46:59 10° SW 20:49:58 39° SSE 20:57:54 10° E
ATLAS 5 CENTAUR R/B 4.4 20:46:27 10° WNW 20:50:10 18° WSW 20:54:11 10° SSW
Cosmos 405 Rocket 3.1 20:49:21 15° SSE 20:52:07 41° E 20:55:40 10° NNE
Cosmos 2333 Rocket 3.8 20:47:43 10° NNW 20:52:47 30° NNE 20:57:50 10° E
Cosmos 1140 Rocket 3.5 20:47:57 10° SSW 20:53:12 79° ESE 20:58:29 10° NNE
Cosmos 2237 Rocket 4.4 20:52:17 10° NNW 20:56:31 21° NNE 21:00:44 10° ENE
Cosmos 1697 Rocket 4.3 20:52:20 10° NW 20:57:02 28° WSW 21:01:43 10° SSW
USA 32 4.1 20:53:58 10° S 20:59:13 89° WNW 21:04:30 10° N
Cosmos 1633 Rocket 3.5 20:57:23 10° SSW 21:01:47 64° WNW 21:06:13 10° N
Cosmos 1833 Rocket 2.8 20:56:46 10° SW 21:02:24 83° NW 21:08:06 10° NE
Meteor 1-18 Rocket 4.3 20:59:23 10° NNW 21:05:03 82° WSW 21:09:50 14° S
Okean 1-7 3.0 21:00:59 10° N 21:05:22 76° ENE 21:08:30 18° SSE
Cosmos 1867 3.7 21:03:28 10° SSW 21:08:43 51° SE 21:14:00 10° NE
CENTAUR R/B 3.4 21:04:45 14° SSE 21:09:09 30° ESE 21:15:07 10° ENE
Okean 3 4.2 21:07:14 10° N 21:11:20 42° ENE 21:13:59 20° SE
Resurs 01 Rocket 4.2 21:09:18 10° SW 21:12:06 16° W 21:14:54 10° NW
Meteor 2-4 Rocket 3.8 21:08:58 10° NNW 21:14:45 74° ENE 21:18:53 19° SSE
FALCON 9 DEB 4.2 21:12:22 10° SSW 21:15:15 24° SSE 21:15:22 24° SSE
Cosmos 1515 3.7 21:11:57 10° NNW 21:15:48 82° W 21:18:23 20° S
deb Kosmos-1763 4.1 21:15:46 10° SSW 21:19:24 79° WNW 21:23:05 10° NNE
Cosmos 44 3.3 21:14:44 10° NW 21:19:33 90° N 21:23:09 19° SE
SL-27 R/B 3.7 21:19:37 21° ESE 21:20:01 21° ESE 21:22:37 10° NE
ATLAS 5 CENTAUR R/B 1.5 21:17:56 10° WNW 21:20:14 71° SSW 21:23:25 18° SE
SWARM C 4.5 21:17:30 10° N 21:20:52 87° E 21:22:47 23° S
SWARM A 4.2 21:17:36 10° N 21:20:57 86° W 21:22:57 22° S
Cosmos 676 Rocket 4.0 21:16:46 10° SSW 21:22:07 86° ESE 21:27:30 10° NNE
Meteor 1-25 Rocket 4.3 21:18:46 10° SSW 21:24:21 82° WNW 21:30:02 10° NNE
Cosmos 1470 Rocket 3.9 21:20:06 10° SSW 21:24:30 66° WNW 21:28:53 10° N
USA 267 3.2 21:23:23 10° ENE 21:29:57 73° SSE 21:36:30 10° WSW
Spot 4 4.3 21:27:26 20° SE 21:30:32 53° ENE 21:35:15 10° N
Cosmos 921 Rocket 4.3 21:27:59 10° NW 21:31:46 31° WSW 21:34:50 13° SSW
NOSS 3-2 (A) 3.5 21:29:03 10° SSW 21:34:46 56° SE 21:41:23 10° NE
SAR-Lupe-2 4.2 21:35:01 10° N 21:38:33 56° WNW 21:41:56 11° SSW
Cosmos 841 Rocket 3.5 21:33:27 10° NNW 21:38:42 84° WSW 21:42:01 23° SSE
Cosmos 540 Rocket 3.5 21:34:57 10° NNW 21:40:09 85° WSW 21:43:22 24° SSE
SL-16 R/B 2.5 21:35:01 10° NW 21:40:37 61° WSW 21:44:17 22° S
ERS-1 Rocket 4.3 21:36:11 10° SSW 21:40:43 33° W 21:45:17 10° NNW
NOSS 3-2 (C) 3.8 21:35:51 13° SSW 21:40:47 43° SE 21:47:04 10° NE
OPS 6432 4.1 21:38:40 10° SW 21:42:19 77° SE 21:45:20 10° NE
Lacrosse 5 2.5 21:38:18 10° WNW 21:43:03 41° SW 21:45:31 24° SSE
Cosmos 2322 4.2 21:37:37 10° NNW 21:43:13 53° NE 21:47:37 16° ESE
Cosmos 1570 Rocket 4.1 21:44:39 10° NNW 21:49:57 71° WSW 21:53:10 24° SSE
Tsikada Rocket 4.2 21:44:26 10° N 21:50:49 63° ENE 21:54:55 23° SSE
Cosmos 2219 Rocket 3.0 21:46:24 10° NNW 21:51:55 47° NE 21:56:38 14° ESE
Cosmos 2208 Rocket 4.0 21:46:46 10° NNW 21:52:06 78° WSW 21:55:11 25° SSE
Cosmos 1741 Rocket 4.0 21:48:23 18° S 21:52:17 65° ESE 21:57:33 10° NNE
Cosmos 1814 Rocket 4.0 21:47:15 10° NNW 21:52:28 81° WSW 21:55:32 25° SSE
Cosmos 2082 Rocket 2.7 21:50:07 10° SW 21:55:46 62° NW 22:01:26 10° NNE
Cosmos 2237 4.2 21:51:21 10° NW 21:57:06 82° WSW 22:00:34 25° SSE
Cosmos 2084 Rocket 4.4 21:59:01 27° SE 21:59:20 28° SE 22:03:00 10° ENE
Cosmos 2322 Rocket 2.6 21:57:24 10° NW 22:02:56 53° WSW 22:06:13 24° S
Terra 3.2 22:00:02 13° SSW 22:03:36 30° W 22:07:51 10° NNW
EO 1 Del DPAF 4.0 22:00:30 10° NNE 22:04:00 35° E 22:04:57 30° SE
SL-16 R/B 4.5 22:02:22 10° NNW 22:06:50 23° NNE 22:11:17 10° ENE
Cosmos 1437 Rocket 4.4 22:05:23 10° NW 22:08:34 25° W 22:10:50 15° SW
Cosmos 2100 Rocket 4.0 22:05:35 18° SSW 22:10:23 82° WNW 22:16:35 10° N
Cosmos 1242 Rocket 2.6 22:07:17 10° N 22:10:52 67° ENE 22:12:07 37° SE
Meteor 1-11 Rocket 3.9 22:09:10 26° S 22:12:21 62° E 22:18:03 10° NNE
ERBS 2.3 22:11:43 10° W 22:15:02 75° N 22:18:11 11° E
Helios 1A 4.2 22:13:11 20° ESE 22:15:29 34° ENE 22:19:19 10° N
Cosmos 1869 Rocket 3.8 22:13:01 21° SSW 22:15:53 68° WNW 22:20:21 10° N
MTI 4.2 22:14:07 10° N 22:17:10 55° WNW 22:18:29 29° SW
Cosmos 2360 Rocket 2.3 22:11:35 10° NW 22:17:15 68° WSW 22:20:19 28° SSE
COSMOS 2428 3.1 22:12:42 10° NNW 22:18:24 59° NE 22:22:37 18° SE
ATLAS 3B R/B 3.2 22:21:13 26° SSE 22:23:58 36° ESE 22:29:56 10° ENE
CRYOSAT 2 4.3 22:19:12 10° N 22:24:08 87° W 22:26:46 28° S
Iridium 4 Rocket 3.6 22:21:45 22° SSW 22:24:23 52° W 22:28:30 10° N
Cosmos 1980 Rocket 4.5 22:22:19 10° WNW 22:24:30 12° W 22:26:41 10° WSW
Cosmos 2173 Rocket 4.2 22:21:11 17° SSW 22:26:00 70° WNW 22:32:08 10° N
Cosmos 1500 3.8 22:25:10 23° SW 22:27:15 50° WNW 22:30:56 10° N
SL-4 R/B 2.8 22:25:04 10° WSW 22:27:13 27° SW 22:27:13 27° SW
ALOS 2 2.5 22:27:44 34° SSE 22:29:40 87° ENE 22:34:06 10° NNW
USA 238 DEB 3.7 22:24:07 10° SW 22:30:51 89° NW 22:37:57 10° NE
USA 238 3.7 22:24:13 10° SW 22:30:57 90° WNW 22:38:02 10° NE
Cosmos 1725 Rocket 4.0 22:27:20 25° S 22:31:15 82° E 22:37:37 10° NNE
Cosmos 1674 Rocket 3.4 22:27:05 10° NNW 22:31:27 90° ENE 22:33:13 35° S
SL-08 R/B 4.4 22:32:18 25° S 22:36:04 88° ESE 22:42:14 10° NNE
Cosmos 1536 2.7 22:34:39 38° S 22:36:08 83° ESE 22:40:09 10° NNE
Cosmos 2333 Rocket 2.2 22:32:02 10° NW 22:37:52 85° ENE 22:41:19 26° SE
Cosmos 1666 2.6 22:37:32 37° SSW 22:38:55 77° WNW 22:42:42 10° N
Cosmos 1743 3.5 22:38:17 33° SE 22:39:15 39° E 22:42:55 10° NNE
Cosmos 1271 Rocket 2.7 22:35:48 10° N 22:39:35 71° ENE 22:40:47 41° SE
NOSS 0 Rocket 4.4 22:35:48 10° NW 22:42:00 61° NE 22:47:14 15° SE
Cosmos 2237 Rocket 3.2 22:36:38 10° NNW 22:42:04 44° NE 22:47:27 10° ESE
Cosmos 1356 3.3 22:41:30 45° SSW 22:42:27 81° WNW 22:45:55 10° NNE
MOS 1-B Rocket 4.0 22:36:57 10° NNE 22:42:47 75° WNW 22:46:44 20° SSW
Cosmos 2016 Rocket 4.2 22:39:51 21° SSW 22:44:14 75° WNW 22:50:39 10° N
Cosmos 2061 Rocket 4.1 22:41:22 22° SSW 22:45:37 73° WNW 22:51:51 10° N
Lacrosse 4 Rocket 2.6 22:45:23 26° ESE 22:45:41 26° ESE 22:49:12 10° ENE
Cosmos 1867 4.3 22:47:01 10° WSW 22:52:23 55° NNW 22:57:46 10° NE
Cosmos 1733 Rocket 3.0 22:50:59 33° SSW 22:52:54 81° WNW 22:57:21 10° N
Thor Agena Rocket 3.6 22:48:57 10° NNE 22:54:02 78° WNW 22:57:00 26° SSW
Cosmos 44 Rocket 3.3 22:49:31 10° NW 22:54:30 89° NE 22:57:31 25° SE
SL-27 R/B 3.4 22:53:08 22° WSW 22:54:54 41° WNW 22:58:06 10° NNE
Cosmos 836 Rocket 4.5 22:50:25 10° NNW 22:55:39 76° WSW 22:58:04 32° SSE
CENTAUR R/B 2.7 22:52:38 10° SW 22:58:59 88° SE 23:06:35 10° NE
Cosmos 968 Rocket 4.0 22:59:01 31° SSE 23:00:47 41° ESE 23:05:36 10° NE
SL-24 DEB 4.4 22:58:32 10° N 23:03:20 67° E 23:05:18 35° SSE
Cosmos 1975 3.7 23:02:22 30° SE 23:03:28 36° E 23:07:11 10° NNE
Cosmos 1378 3.7 23:07:56 10° NNW 23:11:33 46° W 23:12:29 37° SW
Cosmos 1782 Rocket 4.2 23:10:37 31° SE 23:12:03 42° E 23:16:10 10° NNE
USA 267 3.3 23:06:34 10° E 23:13:08 84° N 23:19:43 10° W
Cosmos 1707 3.9 23:10:48 10° N 23:14:28 36° ENE 23:16:13 24° ESE
Cosmos 1842 3.2 23:12:30 10° NNW 23:16:29 84° ENE 23:17:41 44° SSE
Cosmos 2233 Rocket 4.1 23:14:30 26° SSW 23:18:18 76° WNW 23:24:40 10° N
Cosmos 2344 4.2 23:09:54 10° NW 23:18:38 86° NE 23:30:42 10° SE
Cosmos 1464 Rocket 4.4 23:15:36 27° SSE 23:18:54 54° E 23:24:55 10° NNE
Cosmos 1908 Rocket 3.5 23:18:33 39° S 23:20:08 80° E 23:24:32 10° NNE
Helios 1B rocket 3.9 23:17:08 10° NE 23:20:33 25° E 23:21:48 21° ESE
Meteor 1-21 4.3 23:16:23 10° NNW 23:22:16 85° ENE 23:25:21 29° SSE
SL-16 R/B 4.3 23:20:53 10° WNW 23:23:37 14° W 23:26:08 11° WSW
Lacrosse 5 4.0 23:23:03 10° WSW 23:24:41 12° WSW 23:24:41 12° WSW
Cosmos 2227 Rocket 4.3 23:22:42 11° ESE 23:25:11 14° E 23:27:56 10° ENE
NOSS 3-2 (A) 4.1 23:19:36 10° WSW 23:25:41 62° NNW 23:32:49 10° ENE
Cosmos 1378 Rocket 4.5 23:23:04 10° NNW 23:27:12 38° W 23:28:49 28° SW
Cosmos 2322 4.3 23:22:02 10° NW 23:27:20 41° WSW 23:29:31 29° SSW
NOSS 3-2 (C) 3.8 23:25:21 10° WSW 23:31:26 71° NNW 23:38:33 10° NE
Cosmos 1833 4.1 23:28:44 26° SSW 23:32:01 88° SE 23:37:44 10° NE
COSMOS 2487 2.5 23:32:14 46° SW 23:33:07 71° WNW 23:36:35 10° NNE
Nadezhda 4 Rocket 4.1 23:27:56 10° N 23:34:17 74° ENE 23:38:04 26° SSE
Cosmos 2219 Rocket 2.6 23:30:30 10° NW 23:35:59 49° WSW 23:38:19 31° S
Cosmos 2084 Rocket 3.5 23:35:30 19° WSW 23:38:30 76° NNW 23:42:52 10° NE
Cosmos 783 Rocket 4.5 23:34:44 10° NNW 23:39:57 70° WSW 23:42:23 32° S
Cosmos 1975 Rocket 3.1 23:36:16 10° NNW 23:40:47 70° W 23:42:25 38° S
Cosmos 2082 Rocket 4.4 23:36:21 10° W 23:40:58 25° NNW 23:45:35 10° NNE
Cosmos 1437 3.3 23:41:00 10° N 23:43:56 45° ENE 23:44:31 39° ESE
Cosmos 2322 Rocket 4.4 23:43:59 10° WNW 23:45:44 11° W 23:47:29 10° WSW
Okean 2 Rocket 3.9 23:45:22 27° SE 23:47:12 40° E 23:51:26 10° NNE
Cosmos 2034 Rocket 4.3 23:43:53 27° SSE 23:47:21 61° E 23:53:36 10° NNE
Landsat 4 3.8 23:44:21 10° NNE 23:48:10 63° ESE 23:49:12 43° SSE
Cosmos 1503 Rocket 4.2 23:45:55 32° S 23:48:21 65° ESE 23:53:41 10° NNE
Cosmos 1092 Rocket 4.3 23:42:14 10° N 23:48:28 63° ENE 23:52:44 21° SSE
Cosmos 1072 Rocket 4.4 23:46:51 29° S 23:50:08 87° ESE 23:56:18 10° NNE
Helios 1A 3.8 23:49:48 31° SW 23:51:00 39° W 23:55:00 10° NNW
CZ-2D R/B 4.0 23:47:06 10° NE 23:51:14 21° E 23:54:54 12° SE
ERBS 2.3 23:48:02 10° WNW 23:51:02 55° SW 23:51:02 55° SW
SL-16 R/B 3.3 23:46:15 10° SE 23:52:12 50° ENE 23:58:13 10° NNW
SL-16 R/B 3.0 23:46:41 10° NNW 23:52:16 52° NE 23:57:50 10° ESE
Cosmos 1300 Rocket 4.3 23:52:28 28° SE 23:54:10 42° E 23:58:16 10° NNE
Cosmos 1544 3.4 23:54:38 40° SW 23:55:42 57° WNW 23:59:20 10° N
